FW3337 Weather Reports


Display with metric or nautical units.
time (UTC)temp
F
wind
direction
speed
MPH
gust
MPH
rain 1hr
in
rain 24hr
in
rain mn
in
humidity
%
barometer
mb
20260831210024 73 172 0.0 0.0 0.00 0.07 0.00 85 1018.1
20260831204521 73 172 0.0 0.0 0.00 0.07 0.00 83 1018.1
20260831203024 73 172 0.0 1.0 0.00 0.07 0.00 82 1018.2
20260831201520 73 172 0.0 4.0 0.00 0.07 0.00 82 1018.0
20260831200036 73 144 0.0 0.0 0.00 0.07 0.00 83 1018.2
20260831194518 74 144 0.0 0.0 0.00 0.07 0.00 81 1018.5
20260831193032 75 144 0.0 0.0 0.00 0.07 0.00 77 1018.6
20260831191517 76 144 0.0 1.0 0.00 0.07 0.00 73 1018.5
20260831190016 77 144 0.0 0.0 0.00 0.07 0.00 73 1018.9
20260831184516 77 144 0.0 0.0 0.00 0.07 0.00 71 1018.9
20260831183015 78 144 0.0 2.0 0.00 0.07 0.00 69 1019.0
20260831181514 78 152 0.0 1.0 0.00 0.07 0.00 68 1019.0
20260831180024 77 152 0.0 3.0 0.00 0.07 0.00 70 1019.1
20260831174520 78 168 0.0 2.0 0.00 0.07 0.00 68 1019.2
20260831173011 77 164 0.0 1.0 0.00 0.07 0.00 68 1019.4
20260831171510 77 164 0.0 2.0 0.00 0.07 0.00 69 1019.3
20260831170010 77 164 0.0 1.0 0.00 0.07 0.00 68 1019.4
20260831164516 77 168 0.0 3.0 0.00 0.07 0.00 68 1019.6
20260831163009 77 166 0.0 3.0 0.00 0.07 0.00 70 1019.6
20260831161502 76 160 0.0 3.0 0.00 0.07 0.00 72 1019.5
20260831154558 76 183 0.0 2.0 0.00 0.07 0.00 73 1019.8
20260831153052 75 81 0.0 3.0 0.00 0.07 0.00 72 1019.9
20260831151553 75 147 0.0 3.0 0.00 0.07 0.00 73 1019.9
20260831150046 74 68 0.0 3.0 0.00 0.07 0.00 74 1019.8
20260831144540 73 101 1.0 4.0 0.00 0.07 0.00 76 1019.8
20260831143038 72 93 2.0 7.0 0.00 0.07 0.00 79 1020.0
20260831141532 71 108 0.0 3.0 0.00 0.07 0.00 84 1020.1
20260831140031 70 108 0.0 4.0 0.00 0.07 0.00 84 1019.9
20260831134527 69 115 1.0 3.0 0.00 0.07 0.00 89 1019.9
20260831133025 68 136 0.0 0.0 0.00 0.07 0.00 94 1019.9
20260831131524 67 136 1.0 3.0 0.00 0.07 0.00 94 1019.8
20260831130023 67 164 0.0 2.0 0.00 0.07 0.00 95 1019.9
20260831124522 66 151 0.0 0.0 0.00 0.07 0.00 98 1019.9
20260831123022 65 151 0.0 0.0 0.00 0.07 0.00 98 1020.0
20260831121521 65 151 0.0 0.0 0.00 0.07 0.00 98 1020.1
20260831120033 65 151 0.0 0.0 0.00 0.07 0.00 98 1019.7
20260831114528 64 151 0.0 0.0 0.00 0.07 0.00 98 1019.7
20260831113016 64 151 0.0 0.0 0.00 0.07 0.00 98 1019.3
20260831111516 64 151 0.0 0.0 0.00 0.07 0.00 97 1019.3
20260831110015 64 151 0.0 0.0 0.00 0.07 0.00 97 1019.4
20260831104515 64 151 0.0 0.0 0.00 0.07 0.00 97 1019.5
20260831103013 64 151 0.0 0.0 0.00 0.07 0.00 97 1019.3
20260831101511 64 151 0.0 0.0 0.00 0.07 0.00 97 1019.0
20260831100009 64 151 0.0 0.0 0.00 0.07 0.00 97 1019.0
20260831094509 65 151 0.0 0.0 0.00 0.07 0.00 97 1018.8
20260831093013 65 151 0.0 0.0 0.00 0.07 0.00 97 1018.8
20260831091508 65 151 0.0 0.0 0.00 0.07 0.00 97 1018.6
20260831090005 65 151 0.0 0.0 0.00 0.07 0.00 97 1018.6
20260831084504 65 151 0.0 0.0 0.00 0.07 0.00 97 1018.4
20260831083004 65 151 0.0 0.0 0.00 0.07 0.00 97 1018.6
20260831081503 65 151 0.0 2.0 0.00 0.07 0.00 97 1018.3
20260831080004 65 247 0.0 4.0 0.00 0.07 0.00 97 1018.2
20260831074610 65 260 0.0 1.0 0.00 0.07 0.00 97 1018.4
20260831073100 65 260 0.0 0.0 0.00 0.07 0.00 97 1018.4
20260831071558 65 260 0.0 0.0 0.00 0.07 0.00 97 1018.4
20260831064559 66 260 0.0 0.0 0.00 0.07 0.00 97 1018.6
20260831063056 66 260 0.0 1.0 0.00 0.07 0.00 97 1018.5
20260831061555 66 260 0.0 0.0 0.00 0.07 0.00 97 1018.5
20260831060054 66 260 0.0 0.0 0.00 0.07 0.00 97 1018.5
20260831054552 66 260 0.0 0.0 0.00 0.07 0.00 97 1018.5
20260831053052 67 260 0.0 0.0 0.00 0.07 0.00 97 1018.6
20260831051549 67 260 0.0 0.0 0.00 0.07 0.00 97 1018.6
20260831050049 67 260 0.0 0.0 0.00 0.07 0.00 97 1018.4
20260831044555 67 260 0.0 2.0 0.00 0.07 0.00 97 1018.7
20260831043046 68 260 0.0 0.0 0.00 0.07 0.00 96 1018.6
20260831041551 68 260 0.0 0.0 0.00 0.07 0.00 96 1018.4
20260831040039 69 260 0.0 1.0 0.00 0.07 0.00 96 1018.1
20260831034539 69 260 0.0 0.0 0.00 0.07 0.07 96 1018.3
20260831033040 69 260 0.0 0.0 0.00 0.07 0.07 96 1018.4
20260831031540 70 260 0.0 0.0 0.00 0.07 0.07 96 1018.5
20260831030036 70 260 0.0 0.0 0.01 0.07 0.07 96 1018.4
20260831024541 70 260 0.0 1.0 0.01 0.07 0.07 96 1018.7
20260831023036 70 260 0.0 0.0 0.01 0.07 0.07 96 1018.7
20260831021537 71 260 0.0 0.0 0.01 0.07 0.07 96 1018.8
20260831020035 71 260 0.0 0.0 0.03 0.06 0.06 96 1018.7
20260831014534 71 260 0.0 0.0 0.03 0.06 0.06 96 1018.8
20260831013035 71 260 0.0 0.0 0.04 0.06 0.06 96 1018.6
20260831011532 71 260 0.0 0.0 0.05 0.06 0.06 95 1018.4
20260831010038 71 260 0.0 0.0 0.02 0.03 0.03 94 1018.5
20260831004532 71 260 0.0 0.0 0.02 0.03 0.03 94 1018.2
20260831003031 72 260 0.0 0.0 0.02 0.02 0.02 94 1018.1
20260831001530 72 260 0.0 0.0 0.01 0.01 0.01 93 1017.9
20260831000030 73 260 0.0 0.0 0.01 0.01 0.01 92 1017.7
20260830234536 73 260 0.0 0.0 0.01 0.01 0.01 91 1017.5
20260830233029 74 260 0.0 0.0 0.00 0.00 0.00 89 1017.5
20260830231530 74 260 0.0 0.0 0.00 0.00 0.00 89 1017.2
20260830230027 75 260 0.0 0.0 0.00 0.00 0.00 87 1017.3
20260830224527 75 260 0.0 0.0 0.00 0.00 0.00 87 1017.3
20260830223032 75 260 0.0 0.0 0.00 0.00 0.00 87 1017.3
20260830221530 76 260 0.0 0.0 0.00 0.00 0.00 85 1017.2
20260830220024 76 260 0.0 0.0 0.00 0.00 0.00 84 1017.5
20260830214523 76 260 0.0 0.0 0.00 0.00 0.00 83 1017.3
20260830213023 77 260 0.0 2.0 0.00 0.00 0.00 81 1017.3
20260830211523 77 266 0.0 3.0 0.00 0.00 0.00 81 1017.1